Theta_e
324 325 328 330 332 334 335 336 337 337 339 340 341 342 344 346 346 347 346 347 347 347 349 351 351 352 351 351 352 351 350 349 350 349 350 349 349 349 350 351 351 351 352 352 352 354 356 358 358 358 359 359 359 358 359 360 361 361 361 361 359 362 358
323 325 327 330 332 334 335 336 337 338 339 340 341 342 344 346 347 347 347 347 348 348 350 351 353 352 351 352 353 353 352 350 353 354 352 352 354 352 352 351 351 351 352 353 354 355 357 357 358 358 357 359 359 359 358 359 360 360 360 360 361 360 361
324 325 327 329 331 333 335 337 338 339 340 341 342 342 344 346 347 347 348 348 348 348 351 351 353 352 352 352 353 353 353 352 352 353 352 351 352 352 353 353 352 352 353 354 354 355 357 357 357 358 358 357 357 358 359 359 360 360 360 361 362 363 361
325 325 327 329 332 334 336 337 338 339 340 342 342 343 344 346 348 348 349 349 348 349 350 351 353 353 352 352 352 353 354 353 354 353 353 352 352 354 354 353 353 354 353 354 355 356 356 358 357 357 362 358 357 358 359 360 360 361 361 361 362 362 362
327 326 327 328 330 333 335 336 338 339 340 342 343 345 345 347 348 349 349 350 350 349 350 352 354 354 354 353 353 353 355 355 355 355 354 354 355 355 354 354 354 354 354 355 357 359 358 357 356 357 357 359 357 357 359 359 360 361 361 361 360 360 361
327 326 326 328 329 332 335 336 338 339 340 341 343 343 345 347 348 348 349 350 350 351 351 352 353 355 353 353 354 354 356 356 357 357 355 354 355 355 354 355 355 355 354 355 357 358 358 358 357 357 356 356 357 356 357 358 359 359 360 360 360 360 359
327 328 327 328 330 331 334 336 338 339 341 342 344 345 345 346 348 348 349 349 351 350 350 351 353 354 354 354 354 355 354 356 357 357 356 355 355 355 355 355 358 356 356 357 356 358 357 358 359 358 357 356 358 356 357 358 359 359 360 359 359 359 359
328 329 328 329 330 332 333 336 337 339 340 342 343 343 344 346 347 348 348 349 350 351 351 351 352 353 354 355 354 354 355 356 357 358 357 355 355 356 355 355 356 357 357 356 357 358 357 358 358 359 358 357 357 358 357 358 359 358 358 358 358 358 358
329 330 329 329 331 332 333 335 337 338 339 340 342 343 344 345 346 347 348 349 350 350 350 351 352 353 354 354 354 354 356 357 357 357 357 355 355 355 355 355 356 357 356 356 357 358 358 358 358 359 359 359 359 358 357 359 358 358 358 358 358 357 358
328 330 330 331 331 333 334 335 336 336 337 339 341 342 343 345 346 347 348 349 350 350 350 351 352 353 353 353 354 355 356 356 357 357 356 355 355 354 355 356 356 358 356 356 356 356 358 358 358 358 359 358 359 358 358 358 358 358 358 358 358 358 358
329 330 330 329 330 331 333 334 334 335 337 338 340 342 343 344 345 346 347 348 349 350 351 351 352 352 352 353 353 353 354 355 356 356 356 356 355 355 355 355 356 357 357 356 355 356 356 358 358 358 358 357 358 358 358 358 358 359 358 358 359 358 358
330 331 331 330 329 330 332 333 335 335 336 338 340 341 343 344 345 346 347 348 349 350 350 351 352 352 352 352 352 352 353 354 356 356 355 356 356 355 355 355 355 355 357 357 356 356 356 356 356 357 357 358 358 359 359 359 359 359 359 358 359 358 359
333 332 332 332 332 331 331 332 333 335 336 338 340 341 343 344 345 346 346 347 349 350 350 351 352 352 351 351 351 351 352 353 354 356 356 356 356 356 356 355 355 354 354 357 356 355 354 354 355 357 357 358 358 358 359 359 358 359 359 359 359 359 359
337 334 333 332 331 330 330 331 332 333 335 336 339 341 343 345 345 346 346 347 348 349 350 351 351 351 351 351 351 351 351 352 354 355 356 356 357 356 355 355 355 355 355 356 356 355 354 354 354 355 356 356 357 358 359 359 358 358 359 359 358 358 358
333 333 333 333 332 332 330 330 331 333 334 336 338 340 342 344 345 346 347 348 349 350 350 351 350 350 350 350 350 350 351 352 353 354 355 357 356 355 354 353 354 354 354 355 355 354 355 355 354 355 355 356 357 358 358 357 357 358 358 358 358 358 357
333 333 332 333 334 335 335 333 333 333 335 336 337 339 341 343 344 345 346 347 349 350 351 351 350 350 349 349 349 351 351 351 352 352 353 354 354 354 354 353 353 352 352 352 354 354 356 355 355 354 354 354 355 356 356 357 357 360 362 362 360 358 357
332 332 333 334 334 335 336 335 335 336 336 336 337 338 340 342 344 346 347 347 348 349 351 352 350 350 349 349 350 350 351 350 351 351 351 352 353 353 353 353 353 353 352 352 352 353 354 356 353 352 353 353 354 354 354 355 356 359 345 346 356 362 358
331 331 333 333 334 335 335 335 335 336 336 337 337 338 339 340 342 344 345 346 348 349 351 351 350 349 349 350 350 350 350 350 350 350 350 350 351 352 352 352 351 351 351 351 350 352 353 353 352 352 352 353 353 353 354 355 353 341 342 346 346 359 362
330 331 331 333 333 335 335 336 336 337 338 338 338 338 339 340 341 342 343 344 345 347 347 346 346 347 347 347 348 348 348 349 349 349 348 349 349 350 350 350 349 348 348 348 350 350 351 351 351 351 352 352 352 353 354 355 346 340 340 339 340 342 360
331 332 332 333 334 335 336 336 337 337 338 339 341 342 341 343 342 342 343 344 343 342 342 343 343 344 342 343 344 345 346 346 347 347 347 348 349 349 350 349 348 348 348 349 350 349 348 349 350 350 351 350 351 352 353 354 339 332 332 332 332 334 342
330 331 331 332 333 334 334 335 335 336 337 337 339 341 341 342 343 343 342 342 340 340 341 342 341 341 341 341 340 341 343 346 346 346 346 346 348 348 349 349 349 348 348 349 350 349 349 349 349 349 351 350 350 350 349 341 324 325 327 326 327 330 341
329 330 330 332 333 332 332 333 335 336 336 339 339 340 340 340 342 341 340 341 340 340 340 340 339 338 339 340 340 340 341 340 342 345 345 345 347 348 348 348 347 347 346 348 347 349 350 349 350 348 347 346 346 347 341 329 319 320 320 321 323 330 344
329 329 330 330 331 331 332 333 334 336 337 337 338 339 339 340 341 340 339 338 338 339 339 338 337 337 340 342 341 342 342 342 342 341 342 341 340 340 341 341 343 344 346 345 347 348 347 345 341 340 340 341 338 338 333 332 322 316 316 317 317 334 347
329 329 329 329 331 331 332 332 334 336 337 337 337 338 339 340 340 338 337 336 336 336 336 335 336 338 339 340 342 343 342 341 341 341 340 339 340 340 341 342 342 342 346 345 347 347 345 343 339 338 339 337 335 335 334 331 324 315 314 315 317 331 343
326 327 328 329 328 328 329 329 331 331 333 334 333 335 337 337 336 335 335 335 335 336 334 335 337 338 338 340 342 344 343 342 341 341 340 340 340 341 341 341 341 342 341 340 343 344 343 342 339 336 337 339 340 339 333 332 329 315 313 313 316 331 340
324 324 325 328 328 328 328 329 328 328 328 329 330 334 335 336 335 334 333 333 334 333 333 334 335 337 339 341 342 344 343 343 343 341 341 340 340 342 341 342 342 341 341 341 342 342 343 342 339 337 336 336 334 334 333 330 326 320 312 312 315 323 340
323 324 324 324 325 328 326 327 327 326 327 328 331 333 333 333 332 331 331 330 330 330 331 333 335 337 338 339 341 342 342 342 342 342 341 341 341 342 342 342 340 340 340 340 342 341 340 339 337 335 334 334 335 335 333 330 325 320 312 311 313 318 332
322 322 323 325 327 326 324 325 325 326 326 328 330 331 331 331 329 328 328 327 325 327 329 330 331 333 334 335 336 337 338 340 341 342 342 342 341 339 340 340 341 341 341 341 339 337 336 335 334 334 334 333 332 331 330 332 329 324 315 312 311 312 319
319 319 320 321 323 325 325 323 323 324 325 327 328 329 330 329 327 327 326 325 326 328 329 329 329 330 331 332 332 334 335 336 339 341 342 342 341 339 337 338 339 340 341 338 336 334 331 331 332 331 328 328 328 327 327 328 328 325 322 315 311 311 312
319 320 320 322 323 324 324 322 322 322 323 324 325 326 327 328 327 327 326 325 329 330 330 328 327 328 329 331 330 330 332 335 335 336 336 337 336 336 334 335 338 339 339 337 333 330 330 331 332 329 327 326 325 325 326 326 326 324 323 321 314 311 311
317 318 319 320 322 324 322 321 320 321 321 323 323 324 324 325 326 326 324 326 329 329 330 330 329 327 326 326 328 330 331 332 333 333 333 333 334 334 335 335 336 334 333 331 330 330 329 330 331 329 327 325 323 322 321 321 321 323 325 323 321 314 313
317 318 319 320 321 321 320 319 320 320 320 321 322 322 324 322 323 322 323 325 327 327 328 329 330 330 329 329 330 330 330 327 326 326 327 328 329 330 331 334 334 332 331 331 331 331 331 331 330 328 326 323 321 319 319 319 319 318 320 323 323 321 317
314 315 317 317 320 320 317 318 318 319 319 318 319 320 320 320 321 322 324 324 324 326 327 327 327 328 327 328 329 330 329 327 325 322 321 321 322 322 326 328 330 333 332 332 331 331 333 331 329 327 325 321 320 320 319 319 318 318 318 318 319 319 319
313 316 316 316 317 317 316 316 317 318 318 318 318 319 320 320 320 321 321 322 324 327 328 330 327 322 323 325 329 330 329 329 328 321 317 316 315 314 316 318 322 322 321 322 325 330 330 330 330 327 324 319 319 317 317 317 317 316 314 312 313 313 316
312 314 316 316 317 318 316 318 317 317 318 318 317 318 319 320 321 321 321 321 324 326 327 328 331 327 323 323 324 326 326 320 320 318 315 314 312 310 308 310 313 317 318 317 315 318 325 332 331 327 322 320 318 318 316 317 317 314 306 309 303 307 311
313 315 316 317 318 318 319 319 318 319 319 318 318 320 320 320 321 322 322 322 322 325 327 328 327 324 324 324 323 322 322 320 318 318 317 315 314 313 310 307 301 305 313 313 312 306 304 314 326 323 320 318 315 315 317 317 315 304 296 294 294 295 295
314 315 315 316 317 317 318 319 321 320 320 319 321 321 321 321 320 321 322 321 322 323 323 324 325 323 323 327 326 324 322 319 316 316 315 315 316 317 316 314 311 298 298 305 305 300 296 297 300 306 312 319 314 309 304 304 299 294 294 294 293 293 292
314 315 316 316 316 318 318 319 319 319 319 318 319 318 319 320 319 320 321 321 322 322 322 321 322 321 323 325 326 325 323 320 320 319 317 315 316 316 317 316 315 314 302 297 300 299 295 295 295 296 300 305 311 315 310 301 295 293 293 293 294 293 293
Wind_Speed
9 9 9 10 10 11 12 12 12 11 11 11 11 11 11 10 10 10 10 10 11 10 9 10 10 8 8 7 7 6 6 6 6 6 6 6 6 6 6 5 6 6 5 5 6 6 5 4 5 5 4 4 4 4 4 3 3 2 2 2 1 1 1
10 10 11 10 10 11 12 12 12 10 10 10 10 11 10 11 10 10 10 11 11 12 11 10 9 9 9 8 6 7 7 7 6 5 5 5 5 5 6 7 7 7 6 6 6 5 4 5 5 5 5 4 5 4 3 3 3 3 3 2 2 2 1
10 10 11 11 11 11 12 10 10 11 11 10 10 10 11 11 11 12 11 11 10 10 9 10 10 9 8 8 7 7 7 6 6 7 7 6 7 7 6 6 6 6 7 6 5 5 4 4 5 5 5 5 4 4 4 3 4 4 4 3 3 3 3
9 11 12 13 12 12 13 13 13 11 10 11 12 13 12 12 11 11 11 12 12 10 11 10 9 8 8 8 8 7 7 6 6 7 7 7 7 6 6 6 5 5 5 6 5 5 4 5 5 5 5 5 5 4 4 4 4 4 4 4 3 4 3
7 8 8 10 10 10 11 11 12 12 12 12 11 12 12 12 11 10 9 10 11 12 12 11 8 8 7 8 6 6 7 7 6 6 6 6 6 6 6 6 6 6 7 5 5 5 5 5 5 5 5 5 5 4 4 4 4 4 4 4 4 4 3
8 8 10 10 11 11 12 12 13 13 12 12 12 11 10 10 9 11 10 10 10 9 8 8 9 9 9 7 7 6 6 7 7 6 6 6 6 6 6 6 6 6 6 7 5 5 6 5 5 5 5 4 5 5 4 4 4 4 4 4 4 4 3
8 8 10 11 11 11 12 12 12 12 11 11 11 10 10 10 11 11 10 10 10 10 10 10 9 10 9 8 8 8 8 7 7 7 6 6 6 6 7 6 6 6 6 5 6 5 6 6 6 6 5 5 5 5 5 5 5 4 4 4 4 4 4
10 9 9 11 11 11 11 11 11 11 9 8 9 9 10 10 9 9 10 10 10 9 9 10 9 9 9 8 8 9 8 7 7 6 6 7 6 7 6 6 6 6 5 6 6 6 6 6 5 5 6 5 6 6 6 6 6 5 4 5 5 4 3
10 9 10 10 11 11 11 11 11 11 12 11 12 11 11 10 10 10 10 10 9 10 10 10 10 9 8 8 8 9 8 7 6 7 7 7 6 7 6 6 6 5 6 6 5 5 6 6 6 6 6 6 6 6 6 6 6 5 5 5 5 5 4
9 8 6 6 8 9 10 10 10 9 10 10 9 9 11 10 9 9 9 9 9 11 11 10 9 8 8 8 8 8 7 8 7 7 7 7 6 7 6 6 5 5 6 6 5 5 5 6 6 6 6 6 6 6 6 6 5 5 5 6 6 6 6
6 8 7 6 7 8 9 9 10 11 11 11 11 10 10 10 10 10 9 9 10 10 10 10 9 9 9 9 9 8 8 7 7 7 7 7 6 7 6 6 6 5 6 5 5 6 5 5 5 5 5 5 6 6 6 6 6 6 6 5 5 6 6
6 7 6 6 5 6 9 10 10 10 10 10 10 11 10 10 10 10 9 10 10 10 9 9 8 9 9 8 9 9 9 9 7 8 8 8 7 7 7 6 6 6 5 6 6 6 6 6 5 6 7 7 7 7 7 7 6 7 7 6 6 5 5
6 5 4 4 5 6 5 6 9 10 10 11 11 11 10 11 10 10 10 10 10 9 8 8 8 9 8 8 9 9 9 9 8 7 7 7 7 6 6 6 6 6 6 6 6 6 6 6 6 6 6 7 7 7 7 7 6 6 6 6 5 5 5
7 7 5 4 3 4 7 7 7 8 10 10 10 9 9 9 10 11 11 11 10 9 8 7 8 8 8 8 8 9 9 9 9 8 8 7 6 6 6 6 6 6 6 5 6 7 7 7 7 6 6 6 7 7 6 6 6 6 6 6 5 5 5
6 6 4 4 3 2 5 8 7 8 9 10 9 10 10 8 8 6 6 6 7 8 9 9 9 9 9 9 9 9 9 8 7 7 7 7 7 7 7 7 7 6 6 6 6 6 6 6 6 6 6 7 6 6 5 6 6 5 5 6 6 6 6
4 4 4 3 2 3 3 3 4 6 6 7 9 10 9 9 8 9 9 7 5 6 6 7 8 9 9 10 10 9 8 8 7 7 7 7 7 7 7 7 6 6 7 7 7 7 6 6 6 6 7 7 7 6 5 5 5 7 11 9 6 6 5
5 4 3 2 2 2 2 5 6 6 6 7 7 8 8 8 8 7 7 7 7 7 6 7 8 8 9 10 9 8 7 6 7 6 7 8 7 7 7 7 6 6 6 6 6 6 6 5 6 6 6 7 6 7 6 5 5 11 12 12 12 7 6
2 2 3 2 2 3 3 4 6 7 7 7 7 8 8 7 7 8 8 7 8 7 7 7 6 8 8 6 3 4 5 6 6 6 7 6 7 6 6 5 6 6 6 6 6 6 5 6 7 7 6 6 6 6 6 6 8 11 11 12 12 10 6
3 2 1 2 3 2 2 2 4 5 6 6 7 7 7 8 7 7 6 5 4 6 5 5 3 2 1 3 6 6 6 5 5 6 6 6 5 5 4 5 6 6 6 8 7 5 6 7 6 7 6 6 7 7 6 7 8 9 7 6 7 7 7
5 5 3 4 3 2 2 2 1 3 2 3 1 3 4 5 7 7 8 8 8 7 6 7 7 7 5 2 3 1 3 5 5 6 6 6 6 6 6 6 7 7 6 6 5 6 6 6 7 6 7 7 8 7 6 5 3 3 1 1 2 3 3
6 5 5 4 3 3 4 3 3 3 3 1 2 3 3 4 5 6 7 8 9 8 7 5 5 6 8 7 5 2 6 5 4 7 7 7 7 6 7 7 7 6 6 7 8 8 7 7 6 5 5 5 5 5 4 2 4 3 2 1 2 3 4
8 7 7 6 3 4 4 3 1 2 3 2 3 4 3 4 4 6 6 5 7 7 7 7 5 6 7 1 5 7 6 1 10 9 4 5 3 1 2 3 4 5 3 2 1 1 2 2 2 3 1 1 1 3 3 3 5 4 3 3 2 2 3
8 9 8 7 7 6 5 5 5 5 3 4 4 4 4 5 6 7 7 7 7 7 6 7 6 7 4 2 3 3 5 6 3 5 4 3 5 5 5 3 5 7 2 2 2 3 2 2 2 2 3 3 3 4 3 2 3 4 4 4 5 2 2
9 8 7 6 6 6 7 7 6 6 2 5 6 4 3 3 5 8 8 6 5 6 7 6 4 5 6 5 4 3 3 4 7 6 4 3 4 5 5 5 5 3 4 6 2 5 3 3 3 2 2 3 4 3 4 3 5 8 7 7 7 4 1
8 7 6 7 8 8 8 8 8 9 8 7 6 4 4 5 5 5 5 5 5 5 6 6 6 5 4 3 2 4 3 5 6 6 5 5 5 5 4 3 3 2 3 1 6 3 3 4 4 4 4 4 5 7 7 5 6 10 9 8 7 4 2
8 9 9 8 9 8 9 9 11 12 10 10 8 6 5 5 5 5 5 3 3 5 5 4 4 5 5 3 3 4 3 3 4 6 5 5 5 3 5 4 3 3 2 2 2 3 3 2 4 5 5 5 5 5 5 6 6 8 11 12 11 8 3
7 8 9 9 9 8 9 9 10 10 10 9 9 8 7 7 8 7 5 6 6 6 4 2 3 4 6 5 3 2 2 3 4 5 5 7 5 6 7 6 6 5 5 4 4 2 1 3 4 5 6 8 7 7 6 6 6 9 13 14 14 14 9
7 8 7 7 10 8 7 9 10 10 11 9 9 7 6 7 8 6 7 8 8 6 4 4 4 4 6 7 7 6 7 6 5 3 3 4 3 4 5 4 3 3 3 4 4 4 2 4 7 6 6 5 6 6 7 8 10 7 13 15 16 16 15
7 8 8 9 9 9 8 8 10 11 10 9 8 7 6 9 10 8 7 9 5 3 3 4 6 7 8 9 9 9 8 7 6 4 3 3 1 1 2 2 3 3 4 6 5 4 4 4 5 6 7 7 5 6 6 5 8 13 12 14 16 16 16
6 6 7 7 6 7 8 9 8 8 8 7 8 8 8 7 8 8 9 8 4 5 6 7 8 8 9 8 7 7 6 5 4 4 4 5 4 4 3 1 1 2 3 6 6 5 4 3 4 6 6 6 5 5 4 5 6 11 13 11 14 14 14
5 6 6 7 7 6 7 8 9 9 9 8 9 8 8 8 8 9 10 6 5 7 7 7 8 8 8 8 7 6 5 6 6 7 8 8 8 8 6 4 3 4 5 7 6 6 5 4 4 5 5 5 5 4 4 4 5 6 9 13 13 13 12
5 5 5 6 7 6 6 8 9 9 9 9 8 8 7 7 8 9 4 4 6 6 6 7 7 7 6 6 6 7 7 8 8 8 9 8 8 7 6 6 6 6 5 5 5 5 5 6 5 5 5 5 4 5 4 4 5 5 4 6 8 8 8
4 4 5 6 4 4 6 7 8 8 8 9 8 8 8 8 7 6 5 6 6 6 6 7 7 6 6 6 6 6 6 7 5 5 6 7 6 6 6 6 5 5 5 4 5 5 5 6 5 5 5 5 4 4 4 4 3 3 4 5 5 5 5
3 4 4 4 4 5 6 7 6 6 7 6 5 5 6 7 6 5 5 6 5 5 6 6 6 6 6 6 6 5 5 6 8 6 5 6 6 6 6 5 5 5 4 2 1 3 4 4 4 4 5 5 4 4 3 2 3 3 4 3 3 3 3
3 3 3 5 4 5 5 5 6 5 5 4 4 4 6 6 6 6 6 5 5 5 6 5 5 6 6 5 5 5 5 5 4 4 5 6 6 6 6 4 3 3 4 4 2 2 1 3 4 4 4 4 4 4 4 2 3 2 2 3 4 3 3
4 4 4 4 5 4 4 4 5 4 4 3 3 4 5 5 5 5 6 5 5 5 5 4 5 5 6 5 5 4 4 4 4 4 4 5 5 5 6 9 9 6 3 3 8 8 3 1 3 5 5 5 3 4 1 3 3 5 5 4 3 2 2
4 5 4 4 6 5 5 3 3 4 4 2 3 4 4 5 5 5 6 5 5 5 5 5 5 5 4 5 5 4 4 4 5 4 5 5 5 5 6 5 6 10 10 9 9 8 12 13 12 11 7 5 4 6 11 9 8 6 4 2 2 3 4
5 5 5 4 5 5 4 3 3 3 3 1 2 4 3 4 4 5 5 5 5 5 5 5 5 5 4 4 4 4 4 4 5 4 4 4 4 4 4 5 6 7 11 12 10 11 13 13 13 12 12 10 8 5 3 4 5 4 4 6 7 8 8
Wind_Direction
173 178 181 177 176 178 180 181 178 176 177 179 179 176 174 173 174 173 175 177 182 180 184 179 180 175 180 185 186 185 189 186 183 185 188 193 192 186 188 188 187 199 196 197 210 211 215 201 200 205 202 206 209 214 215 215 223 218 177 197 213 216 233
182 183 180 178 178 183 186 182 179 177 178 181 180 178 177 175 171 176 180 180 183 181 180 184 181 182 181 184 183 185 187 190 186 187 185 188 192 194 194 188 192 199 202 208 208 210 199 212 194 196 204 204 217 217 216 218 225 234 224 198 207 237 236
186 184 180 179 180 183 185 182 183 182 180 179 178 178 181 180 180 180 176 179 182 182 179 183 185 183 181 177 177 188 189 184 186 186 180 186 191 192 196 195 198 196 205 206 205 202 198 201 204 198 196 205 216 220 220 222 221 217 218 208 204 213 217
186 187 184 183 183 182 181 182 183 184 185 182 181 183 183 184 183 181 179 179 180 179 182 187 182 180 180 179 183 182 183 185 190 191 193 187 189 185 182 200 205 206 200 207 206 199 197 190 199 204 207 204 218 223 217 220 216 207 208 193 208 210 216
182 187 177 177 181 180 182 186 186 184 186 186 186 185 186 183 179 179 183 184 182 185 187 183 181 180 181 181 182 181 181 179 185 194 197 196 192 179 185 193 194 198 206 202 199 200 200 194 199 200 210 207 218 217 220 217 216 204 204 190 206 207 224
169 177 180 180 181 183 185 188 189 186 184 183 185 185 186 180 177 182 185 184 190 189 184 181 183 181 181 184 185 184 179 185 184 187 193 194 182 183 194 196 191 197 192 198 189 198 196 196 201 201 204 210 216 220 218 217 220 207 206 199 210 220 224
164 174 179 182 181 182 184 187 190 191 189 188 186 185 179 178 182 185 182 187 187 182 181 185 188 184 187 179 189 186 186 184 184 187 186 186 188 193 200 198 194 195 199 175 198 190 195 199 206 203 203 209 214 219 218 217 219 203 197 202 220 231 234
165 169 184 181 182 180 182 184 189 191 190 186 181 183 184 186 182 180 185 188 185 185 187 188 189 188 186 184 185 192 191 189 186 186 181 187 188 197 197 199 201 195 179 194 200 191 200 204 208 208 204 207 212 215 219 218 217 206 192 200 216 231 219
169 166 174 180 178 180 181 183 186 188 187 187 187 187 187 183 185 187 188 185 186 185 191 189 191 190 184 184 186 193 192 184 183 180 184 189 190 199 197 198 201 188 193 202 201 197 203 204 207 210 208 213 216 210 213 212 210 204 195 205 209 220 226
166 159 168 177 176 177 179 181 182 182 188 190 189 188 189 189 188 189 188 187 185 192 191 188 187 184 183 185 193 190 183 186 183 182 185 191 192 198 200 196 196 191 201 207 204 204 207 206 207 204 209 214 217 212 214 209 210 202 203 208 207 214 224
163 156 151 163 172 174 175 175 180 188 190 191 191 191 190 188 189 188 190 187 191 198 192 188 183 183 186 188 190 191 192 190 182 184 189 195 190 199 198 197 195 192 202 201 208 210 204 206 204 204 201 212 213 214 211 213 208 205 210 214 211 215 223
144 148 154 160 165 164 177 184 185 187 190 192 193 191 190 191 191 191 189 193 194 195 189 189 182 187 185 187 189 193 197 196 190 192 193 197 198 198 197 194 195 195 201 199 208 208 206 204 199 199 203 209 212 211 215 212 210 210 214 215 212 214 222
122 121 125 146 172 183 171 178 188 190 191 193 193 193 191 191 192 191 191 195 196 195 191 186 180 184 187 189 193 194 200 198 198 195 197 198 202 202 199 200 198 197 200 197 207 206 207 207 204 207 205 210 209 211 209 212 210 211 214 218 218 216 219
106 104 98 96 99 152 184 190 188 186 191 192 196 195 196 195 194 192 190 194 194 190 186 182 180 183 188 189 195 199 201 203 201 198 198 198 200 203 204 204 204 204 204 197 203 209 208 207 206 208 206 211 210 214 210 209 210 208 210 213 215 215 222
115 104 99 97 101 129 172 182 186 189 189 193 189 190 192 191 195 199 207 205 197 188 191 181 179 183 186 189 198 204 201 199 201 199 195 195 194 201 207 207 206 204 203 204 209 209 212 209 206 204 207 215 214 215 210 209 214 208 204 210 212 210 221
119 120 130 134 135 145 151 163 170 179 183 189 189 188 186 187 188 190 192 195 189 196 192 174 187 187 188 193 200 201 196 194 195 195 194 195 198 203 205 209 208 205 205 210 211 215 213 214 210 208 209 211 216 214 212 214 214 219 218 211 210 206 217
156 146 131 70 34 22 103 125 128 128 138 157 173 181 184 184 185 181 179 172 172 184 185 185 191 195 194 201 201 196 190 189 196 192 201 205 205 204 204 209 211 214 218 219 219 219 217 209 208 211 211 214 216 216 218 219 220 222 222 223 222 216 205
132 141 152 129 75 65 86 126 134 139 144 148 150 158 164 169 170 168 178 175 180 175 162 175 193 199 200 195 167 188 195 195 189 199 212 212 220 217 214 208 210 219 223 226 225 226 216 215 217 217 213 214 216 219 221 224 229 226 226 224 222 221 212
49 51 119 162 172 151 170 168 148 146 141 141 150 154 163 153 151 165 156 129 96 102 117 109 88 38 56 148 168 174 176 178 193 205 209 217 222 224 218 213 216 222 223 228 228 218 218 223 217 222 217 213 217 219 219 224 227 225 227 231 229 228 232
40 38 27 7 343 298 259 311 339 292 344 16 56 113 141 151 146 141 130 124 121 118 134 143 131 120 115 63 13 7 143 155 179 196 206 203 204 205 213 213 221 222 221 228 231 226 232 230 224 224 218 215 216 222 221 221 135 141 168 240 271 264 254
37 33 29 23 17 7 358 342 306 301 278 199 73 30 46 78 104 117 121 130 128 132 132 133 130 138 145 134 111 50 342 322 203 195 196 193 193 196 208 217 223 221 216 215 219 220 223 224 233 238 241 244 232 226 210 87 80 100 135 190 216 217 226
41 35 29 18 30 34 21 14 64 118 105 67 129 153 168 145 131 120 118 115 124 134 133 120 88 31 355 27 185 191 144 321 314 303 243 181 149 92 328 291 251 231 236 223 206 185 165 125 156 184 157 43 256 199 131 57 44 51 42 7 337 251 228
39 42 41 37 35 33 16 22 20 18 70 99 111 134 141 148 131 126 127 123 130 129 121 118 121 134 180 209 230 197 164 155 136 315 328 79 112 122 119 89 354 327 300 162 173 172 165 132 112 123 125 117 105 118 108 95 38 49 39 25 15 347 250
39 36 36 34 37 34 29 23 19 17 13 110 104 98 110 118 129 133 131 134 140 129 123 124 154 201 195 190 189 201 152 138 142 182 227 272 191 181 160 155 136 121 355 316 204 159 141 130 109 72 77 104 108 127 127 97 45 34 30 35 28 6 314
42 42 33 35 30 33 31 36 42 35 25 28 45 24 54 69 68 71 90 112 116 113 123 127 157 184 210 214 152 234 168 152 149 139 141 221 233 197 181 144 116 123 103 83 305 291 143 123 110 96 84 95 105 100 91 82 48 30 23 29 33 37 24
33 30 32 31 36 38 45 40 45 39 30 26 27 34 63 81 78 75 74 48 75 87 103 127 136 163 196 175 204 219 172 140 130 124 134 190 205 127 67 64 71 92 133 161 199 277 295 119 120 117 106 86 76 72 83 86 64 43 45 37 30 22 39
41 31 32 35 34 32 41 42 48 44 29 20 19 22 42 66 77 74 74 76 64 51 22 50 120 143 138 135 154 131 108 91 94 130 171 216 190 131 136 166 163 161 172 150 145 160 256 54 55 67 67 68 63 64 64 79 80 57 59 55 49 40 40
37 35 34 36 44 40 37 42 44 43 37 24 31 44 61 72 80 82 77 67 50 29 6 11 28 54 64 65 53 46 41 49 74 102 165 232 212 167 153 154 157 143 136 116 105 106 113 89 94 95 85 63 59 57 58 69 80 82 64 65 61 56 52
46 45 35 31 34 37 50 52 49 49 45 40 37 30 39 67 67 60 60 66 59 56 68 60 53 54 57 57 53 47 46 38 50 74 123 148 165 67 99 128 157 153 126 113 112 106 81 84 102 95 87 79 65 61 54 45 60 66 68 62 62 58 55
51 53 49 40 40 32 43 59 52 47 37 34 37 33 30 51 70 69 62 48 28 39 40 44 51 57 59 59 61 64 62 67 68 65 62 58 70 80 73 70 147 143 118 112 108 109 100 69 70 83 88 85 73 57 42 36 54 58 62 65 65 64 63
51 58 60 61 50 45 48 54 59 58 49 37 38 38 37 33 53 51 50 22 30 34 43 47 51 55 60 63 65 64 62 57 43 35 38 37 34 35 37 38 46 59 77 103 110 118 118 118 114 109 109 104 91 74 49 34 30 39 55 62 62 54 54
46 51 58 57 50 48 57 59 56 55 54 39 33 44 44 43 49 57 31 27 44 48 55 57 56 53 47 41 41 50 58 59 47 41 34 37 37 43 33 47 73 86 87 99 112 125 129 128 120 115 107 94 86 77 56 39 37 38 32 39 59 55 42
52 48 67 64 38 56 57 60 59 56 52 43 19 32 34 43 42 45 37 39 30 48 64 69 66 63 54 48 51 53 60 63 53 41 31 26 33 38 40 45 59 84 96 99 115 126 129 126 122 116 109 105 86 79 66 60 51 37 34 34 38 39 34
82 65 44 61 58 73 72 68 70 65 61 53 22 34 39 42 39 33 38 34 35 44 53 60 68 67 56 51 58 64 68 78 77 70 54 43 41 35 28 32 38 65 58 36 40 121 128 121 121 120 126 118 106 94 91 81 58 31 20 22 23 25 21
110 101 85 74 54 64 81 85 74 68 70 48 18 48 47 36 23 20 31 35 44 58 64 59 62 74 72 74 73 73 83 90 100 101 98 90 67 54 41 18 7 52 73 44 27 329 42 103 116 115 115 117 129 132 110 93 68 47 37 52 44 42 28
104 80 65 70 75 70 72 74 91 83 69 43 40 65 61 44 30 23 19 25 37 54 64 61 63 59 57 66 76 75 80 81 77 88 94 98 99 102 78 58 57 33 50 39 13 23 0 66 122 138 136 109 50 12 59 103 108 114 78 62 28 9 339
107 102 84 83 84 60 68 60 80 88 76 39 37 55 52 49 30 31 25 28 32 54 56 49 47 49 59 65 71 87 90 93 93 87 89 90 103 104 105 99 67 55 54 64 63 54 54 59 67 72 64 97 113 60 57 80 97 85 73 52 343 335 350
100 107 105 91 110 113 98 83 80 96 110 60 64 65 61 59 32 23 18 28 36 46 57 53 64 48 34 67 86 85 84 77 93 94 91 82 75 80 93 96 88 54 36 38 48 57 63 62 61 62 69 75 95 117 85 76 84 71 43 17 9 357 354